Wind_Speed
8 8 8 8 8 8 8 8 8 8 9 9 9 9 10 10 11 11 11 11 10 11 11 12 12 12 13 14 14 14 15 15 16 15 15 16 16 16 17 17 18 18 18
9 9 9 8 9 9 9 9 9 9 9 9 10 10 11 11 11 11 11 11 11 12 12 12 13 13 14 15 15 15 16 16 16 17 17 17 17 17 17 18 18 18 19
9 9 9 9 9 9 10 10 10 10 10 10 11 12 12 13 13 12 13 13 13 13 13 14 14 15 15 16 16 16 17 17 18 18 19 18 19 19 19 19 19 19 19
10 10 10 10 10 10 10 10 11 11 11 12 13 14 14 14 14 15 15 15 16 16 16 16 16 16 17 17 17 18 18 18 19 19 20 20 20 19 20 20 19 20 20
11 11 12 12 13 12 12 12 13 13 14 14 15 15 15 15 16 16 16 17 17 17 18 18 18 18 18 19 19 19 19 19 20 21 22 22 21 20 21 21 20 20 21
13 13 13 14 15 15 14 15 15 16 16 16 17 17 17 17 17 17 18 18 18 18 19 18 18 19 19 19 19 20 20 21 22 22 23 23 22 22 22 21 21 21 22
15 15 16 15 16 16 16 16 17 17 17 17 18 18 18 18 18 19 19 19 19 19 20 20 20 20 20 20 21 21 21 22 23 23 23 23 23 23 23 23 24 24 24
17 17 18 18 18 16 17 18 18 18 19 19 19 19 19 20 20 20 20 21 21 21 21 22 22 21 21 21 21 22 22 23 24 23 23 23 23 24 25 25 25 25 25
19 20 20 19 19 19 19 20 20 21 21 20 20 20 21 21 21 21 21 21 22 22 22 23 23 22 22 23 23 23 23 24 24 23 24 24 24 24 25 25 25 25 25
22 22 21 21 21 21 21 21 22 21 21 21 21 21 22 22 22 22 23 23 23 23 23 24 24 24 24 24 24 25 25 24 24 25 25 25 25 25 25 26 26 26 25
23 23 22 22 22 22 22 22 22 23 23 23 23 23 24 23 23 24 24 24 24 24 24 25 25 26 26 26 26 26 25 25 25 25 25 26 25 25 25 26 26 26 26
23 24 24 24 24 24 24 24 24 24 24 24 24 25 25 25 25 24 24 24 25 25 25 26 26 26 27 27 27 27 26 26 26 26 26 26 26 26 26 25 25 25 25
25 26 26 26 25 25 25 25 25 25 25 25 25 25 26 27 27 26 25 25 26 26 27 27 27 27 28 28 28 28 28 28 27 27 27 27 27 27 26 25 25 25 24
26 27 27 27 26 26 26 26 26 26 26 26 26 26 26 27 27 26 26 26 27 27 28 28 27 27 28 28 28 28 28 28 28 28 28 27 28 27 26 26 25 25 25
27 28 28 28 27 27 27 27 27 27 26 26 26 26 27 27 27 27 27 27 28 28 28 29 29 28 28 29 28 29 29 28 28 28 28 28 28 28 27 27 26 26 25
28 28 28 29 29 28 28 29 29 29 29 28 29 29 29 29 29 29 29 29 29 29 29 29 30 30 30 30 30 30 30 29 29 29 29 29 29 29 28 28 28 27 26
29 29 29 30 30 30 31 31 31 31 31 30 30 30 31 31 31 31 31 31 30 30 30 30 31 31 31 31 31 31 31 31 30 30 30 29 29 29 28 28 28 27 26
30 30 31 30 31 31 32 32 32 31 32 32 32 33 33 33 33 32 32 31 32 33 32 32 33 33 32 32 32 31 31 31 31 30 30 29 28 28 28 27 27 27 26
30 30 31 31 32 32 33 33 33 33 33 33 33 34 34 34 34 34 34 33 33 34 34 34 34 33 32 32 31 31 31 31 31 30 30 29 28 28 28 27 27 27 27
31 31 32 32 32 32 33 34 34 34 35 35 35 35 35 35 35 34 34 34 34 34 34 34 33 33 33 32 31 30 30 31 30 30 29 28 28 28 29 29 28 27 27
32 32 33 33 32 33 33 33 33 34 35 35 35 36 36 36 35 34 34 33 33 33 33 33 33 33 33 32 31 30 30 31 30 29 29 28 28 28 28 28 28 28 28
32 33 33 33 33 34 34 34 33 33 33 34 33 34 33 34 34 34 34 33 33 34 33 33 33 33 33 33 31 30 29 29 29 29 29 28 28 27 28 28 28 28 27
33 33 32 33 33 34 34 34 33 33 33 32 31 32 32 33 34 33 32 31 32 32 30 30 31 33 33 32 32 31 29 29 29 29 28 27 27 28 28 28 27 27 27
32 32 32 32 33 32 33 33 32 32 32 31 31 32 32 32 32 31 31 31 31 31 31 32 32 33 33 32 31 31 30 30 29 29 28 27 28 28 28 28 28 27 27
31 31 32 32 33 33 32 32 31 32 32 33 33 32 32 32 32 32 32 32 32 32 32 33 33 33 33 31 31 31 31 30 30 29 28 27 27 27 27 27 27 26 26
30 31 31 31 32 32 32 32 32 32 32 32 32 32 32 32 32 32 32 33 33 33 33 33 33 32 31 31 30 30 30 30 29 29 29 29 28 28 27 27 27 27 27
Wind_Direction
299 299 303 306 308 309 310 312 315 317 321 325 324 320 318 315 310 307 309 311 312 311 309 308 307 304 303 304 304 303 301 298 297 295 295 298 299 299 297 295 294 291 290
294 294 299 301 301 302 305 306 309 313 316 318 317 317 318 317 313 307 306 308 310 313 311 308 306 303 304 306 306 305 305 304 302 300 298 297 298 297 298 296 293 291 289
292 289 294 297 295 297 302 304 306 310 312 313 313 313 313 312 311 307 303 304 304 304 304 304 303 302 303 304 304 304 302 302 303 305 304 302 300 298 297 295 293 291 289
289 286 290 292 293 294 296 298 300 302 302 303 305 307 306 305 304 305 303 301 301 300 300 301 301 300 300 301 302 302 302 303 304 305 306 303 301 300 297 295 292 291 290
282 283 282 283 285 287 290 295 296 297 297 297 298 299 301 300 299 300 299 298 298 298 298 299 299 299 297 298 299 300 302 303 303 303 303 303 298 298 298 296 294 292 289
280 280 280 280 284 287 290 293 293 294 295 296 295 294 297 299 298 297 296 295 295 296 295 295 296 297 296 295 296 296 298 300 299 298 299 299 295 295 296 295 295 293 290
279 280 280 281 284 286 288 292 291 295 296 294 296 295 297 298 298 298 297 294 293 292 293 294 295 296 296 293 293 294 296 297 298 298 299 300 297 296 295 293 294 294 293
278 279 279 282 285 286 289 290 292 293 295 295 295 295 295 297 298 298 296 294 292 291 292 293 295 295 295 294 294 295 295 296 297 297 297 297 297 297 296 295 294 293 293
277 276 277 280 283 284 287 289 291 292 293 296 295 294 293 295 296 297 296 294 293 292 291 291 293 293 293 294 295 296 296 297 297 297 297 298 297 297 297 296 295 294 293
277 276 277 279 280 280 283 286 289 291 291 292 293 294 295 296 296 296 296 294 293 292 292 292 293 294 293 293 295 295 295 295 296 297 297 298 298 298 298 296 294 294 293
276 276 276 276 277 278 280 284 286 288 290 290 292 293 294 295 296 296 296 294 293 293 293 292 293 293 293 294 295 295 295 294 295 296 296 297 297 298 298 297 295 294 292
277 276 275 275 275 277 279 282 285 288 290 291 292 293 293 294 295 294 295 294 293 292 293 294 293 292 293 293 294 294 294 294 295 295 296 296 296 296 297 297 296 295 293
275 277 277 276 276 278 279 282 284 285 287 289 290 291 292 294 294 293 293 294 293 292 291 292 292 292 293 294 293 293 294 294 294 294 294 295 295 295 295 295 294 294 293
276 276 276 275 274 276 278 280 283 284 285 287 288 289 288 290 291 292 292 292 293 293 293 292 292 293 295 295 294 294 294 294 293 294 294 294 293 294 294 294 293 293 292
276 275 273 274 274 274 276 279 281 283 284 285 286 287 287 288 289 290 291 292 292 292 293 293 293 294 295 294 294 294 294 293 293 293 293 292 292 293 292 291 291 290 290
275 275 273 273 274 274 275 278 279 282 284 285 285 286 287 287 289 289 291 291 292 292 291 292 292 293 293 293 293 293 292 291 291 292 292 291 291 292 291 290 290 289 288
274 274 273 273 273 274 276 277 279 280 282 283 285 286 286 285 286 289 290 290 290 290 290 291 291 291 292 294 294 294 292 290 289 289 290 290 289 289 289 289 289 288 287
275 274 273 274 274 276 277 279 280 279 281 282 283 284 285 287 288 288 288 288 289 289 288 289 290 290 291 293 294 293 293 291 289 288 288 288 288 288 289 289 288 286 286
275 274 273 274 275 277 278 279 281 280 281 281 282 283 283 286 287 287 287 287 288 289 288 288 289 288 289 290 292 292 291 292 291 289 288 288 287 288 289 288 288 287 287
275 275 275 275 276 277 278 278 280 280 280 281 282 283 284 285 286 284 284 285 287 287 286 286 287 288 289 290 291 291 290 291 291 290 288 287 287 288 288 287 287 286 286
274 276 276 275 275 276 278 279 280 281 281 281 282 283 283 284 285 284 282 283 285 288 287 287 287 288 288 287 289 290 290 289 288 288 287 287 287 287 287 286 286 285 284
275 277 276 276 277 277 279 283 284 284 284 284 284 285 284 285 285 286 284 284 285 287 288 288 288 287 287 286 286 288 290 289 287 289 289 287 285 285 284 284 285 284 284
276 277 278 278 278 279 280 283 284 284 286 286 287 287 288 288 289 288 287 286 285 285 285 286 287 287 287 287 287 287 287 288 288 288 287 285 285 284 284 285 285 285 284
276 277 278 278 279 279 281 283 283 283 284 286 288 289 289 290 290 289 289 289 287 286 286 285 286 286 286 286 285 285 286 287 286 284 284 283 284 284 285 286 287 286 284
277 277 279 280 280 280 281 283 284 283 284 286 287 288 289 289 290 291 291 291 290 289 288 288 288 287 285 283 282 283 283 284 284 285 284 283 284 285 285 286 286 285 283
276 277 279 282 283 281 282 283 283 283 284 285 287 288 288 289 290 290 290 290 290 290 290 289 288 287 285 283 282 283 282 282 283 284 284 285 285 285 285 285 284 283 284
Height
5895 5894 5893 5892 5891 5890 5888 5887 5886 5884 5883 5882 5880 5879 5877 5876 5874 5873 5871 5870 5868 5867 5865 5864 5863 5861 5860 5858 5857 5855 5853 5851 5849 5847 5845 5843 5841 5839 5836 5834 5832 5830 5829
5892 5892 5890 5889 5888 5887 5886 5885 5883 5882 5881 5879 5878 5877 5875 5874 5872 5870 5868 5867 5865 5864 5862 5861 5859 5858 5856 5854 5852 5850 5848 5847 5845 5843 5841 5839 5836 5834 5832 5829 5827 5825 5824
5890 5889 5888 5887 5886 5885 5883 5882 5881 5879 5878 5877 5876 5874 5872 5870 5869 5867 5865 5864 5862 5860 5859 5857 5855 5854 5852 5850 5848 5846 5844 5842 5840 5838 5836 5834 5831 5829 5826 5824 5822 5820 5819
5887 5886 5885 5884 5883 5882 5880 5879 5878 5877 5875 5874 5872 5871 5869 5867 5865 5863 5862 5860 5858 5856 5855 5853 5851 5849 5847 5845 5843 5841 5839 5837 5835 5833 5831 5828 5826 5824 5821 5819 5817 5815 5813
5884 5883 5882 5881 5880 5878 5877 5876 5875 5873 5872 5870 5868 5867 5865 5863 5861 5859 5857 5855 5854 5852 5850 5848 5846 5844 5842 5840 5838 5836 5834 5832 5830 5827 5825 5823 5820 5818 5816 5814 5811 5809 5807
5880 5879 5878 5877 5876 5874 5873 5872 5870 5868 5867 5865 5864 5862 5860 5858 5857 5855 5853 5851 5849 5847 5845 5843 5841 5839 5837 5835 5833 5831 5829 5826 5824 5821 5819 5817 5815 5812 5810 5807 5805 5804 5801
5875 5874 5873 5872 5871 5869 5868 5867 5865 5863 5861 5860 5858 5857 5855 5853 5851 5849 5847 5845 5843 5841 5839 5837 5835 5833 5831 5829 5827 5825 5823 5820 5818 5815 5813 5811 5808 5806 5803 5801 5798 5797 5795
5870 5869 5868 5867 5865 5864 5863 5862 5860 5858 5856 5855 5853 5851 5849 5847 5845 5843 5841 5839 5837 5835 5833 5831 5829 5827 5825 5823 5821 5818 5816 5814 5811 5808 5806 5804 5801 5799 5796 5794 5791 5789 5787
5864 5863 5862 5861 5860 5859 5858 5856 5855 5853 5851 5849 5847 5845 5843 5841 5839 5837 5835 5833 5831 5829 5827 5825 5823 5821 5819 5816 5814 5812 5809 5807 5804 5801 5799 5797 5794 5792 5789 5787 5784 5782 5780
5858 5857 5856 5855 5854 5853 5852 5850 5849 5847 5845 5843 5841 5839 5837 5835 5833 5831 5828 5826 5824 5822 5820 5818 5816 5814 5812 5809 5807 5805 5802 5800 5797 5794 5792 5789 5787 5784 5782 5779 5777 5774 5772
5851 5850 5849 5848 5847 5847 5845 5844 5842 5840 5839 5837 5835 5833 5830 5828 5826 5824 5822 5819 5817 5815 5813 5811 5809 5806 5804 5802 5800 5797 5795 5792 5789 5787 5784 5782 5779 5777 5774 5772 5769 5767 5764
5844 5843 5842 5841 5840 5839 5838 5837 5835 5834 5832 5830 5828 5826 5824 5822 5819 5817 5815 5812 5810 5808 5806 5803 5801 5799 5797 5794 5792 5790 5787 5784 5782 5780 5777 5775 5772 5770 5767 5765 5762 5759 5757
5837 5836 5835 5835 5834 5833 5832 5830 5829 5827 5825 5823 5821 5819 5817 5815 5813 5810 5807 5805 5802 5800 5798 5795 5793 5791 5788 5786 5784 5781 5779 5776 5774 5772 5769 5767 5764 5762 5759 5757 5754 5752 5749
5829 5828 5827 5826 5826 5825 5824 5823 5821 5820 5818 5816 5814 5812 5810 5808 5805 5802 5800 5797 5795 5792 5790 5787 5785 5782 5780 5778 5775 5772 5770 5768 5765 5763 5761 5759 5756 5754 5751 5749 5747 5744 5742
5820 5819 5818 5818 5817 5816 5816 5815 5813 5812 5810 5809 5807 5805 5803 5800 5798 5795 5793 5790 5787 5785 5782 5780 5777 5775 5772 5769 5767 5764 5761 5759 5757 5754 5752 5751 5748 5746 5743 5741 5739 5737 5734
5812 5811 5810 5810 5809 5808 5807 5806 5805 5804 5802 5800 5798 5796 5794 5792 5790 5787 5785 5782 5779 5777 5774 5772 5769 5766 5763 5761 5758 5755 5752 5750 5748 5745 5743 5741 5739 5737 5735 5733 5730 5728 5726
5803 5803 5802 5801 5800 5799 5798 5797 5796 5794 5793 5791 5789 5787 5785 5782 5780 5778 5775 5773 5770 5768 5766 5763 5760 5758 5755 5752 5748 5746 5743 5740 5738 5736 5734 5732 5730 5728 5726 5724 5722 5720 5718
5795 5794 5793 5792 5791 5790 5789 5788 5786 5784 5784 5782 5780 5778 5776 5773 5771 5768 5766 5763 5761 5758 5756 5754 5751 5748 5745 5742 5739 5736 5733 5731 5728 5726 5725 5722 5720 5719 5717 5715 5713 5712 5710
5786 5785 5784 5783 5782 5781 5780 5779 5776 5775 5773 5772 5770 5768 5766 5764 5761 5759 5756 5753 5751 5749 5746 5743 5741 5738 5735 5733 5730 5726 5724 5721 5719 5717 5715 5713 5711 5710 5708 5706 5704 5703 5701
5776 5776 5775 5774 5773 5771 5770 5768 5767 5765 5763 5761 5760 5757 5755 5753 5750 5748 5745 5743 5741 5738 5735 5733 5731 5728 5725 5723 5720 5717 5714 5712 5710 5708 5706 5704 5703 5701 5699 5698 5696 5694 5693
5767 5766 5765 5764 5762 5761 5759 5758 5757 5755 5753 5751 5748 5745 5743 5741 5739 5736 5734 5732 5730 5727 5725 5723 5720 5718 5715 5713 5710 5708 5705 5703 5701 5699 5697 5695 5693 5692 5691 5689 5687 5686 5684
5757 5756 5755 5754 5753 5751 5749 5747 5746 5744 5742 5740 5737 5734 5732 5730 5728 5725 5723 5721 5719 5717 5715 5712 5710 5708 5705 5703 5701 5698 5696 5694 5691 5689 5687 5685 5684 5683 5681 5680 5678 5676 5675
5747 5746 5745 5744 5742 5741 5739 5737 5736 5734 5732 5730 5727 5725 5722 5720 5718 5715 5713 5710 5708 5706 5704 5702 5699 5697 5695 5693 5691 5689 5687 5685 5682 5680 5678 5677 5675 5673 5672 5670 5669 5667 5666
5737 5735 5734 5733 5732 5730 5729 5727 5725 5724 5722 5720 5718 5716 5713 5710 5707 5705 5703 5701 5698 5696 5694 5691 5689 5687 5684 5682 5680 5679 5677 5675 5673 5671 5669 5668 5666 5664 5663 5661 5659 5658 5656
5726 5725 5724 5723 5721 5720 5719 5717 5715 5714 5712 5710 5708 5706 5703 5701 5698 5696 5693 5691 5688 5686 5683 5681 5678 5676 5674 5672 5670 5668 5667 5665 5663 5662 5660 5658 5657 5655 5654 5652 5651 5649 5647
5717 5716 5714 5713 5712 5710 5709 5707 5705 5703 5702 5700 5697 5695 5693 5691 5688 5686 5683 5680 5677 5675 5672 5670 5667 5665 5663 5661 5660 5658 5656 5655 5653 5652 5650 5649 5647 5646 5644 5643 5642 5640 5638